Time,TemperatureF,DewpointF,PressureIn,WindDirection,WindDirectionDegrees,WindSpeedMPH,WindSpeedGustMPH,Humidity,HourlyPrecipIn,Conditions,Clouds,dailyrainin,SoftwareType,DateUTC
2013-01-13 00:08:00,52.6,52.0,30.14,NE,39,4.0,-999.0,99,-99.99,,,0.01,weatherlink.com 1.10,2013-01-13 05:08:00,
2013-01-13 00:23:00,52.4,52.0,30.14,NNE,21,3.0,-999.0,98,-99.99,,,0.01,weatherlink.com 1.10,2013-01-13 05:23:00,
2013-01-13 00:38:00,52.3,52.0,30.14,NNE,23,0.0,-999.0,98,-99.99,,,0.00,weatherlink.com 1.10,2013-01-13 05:38:00,
2013-01-13 00:53:00,51.8,51.0,30.14,NNE,25,3.0,-999.0,98,-99.99,,,0.00,weatherlink.com 1.10,2013-01-13 05:53:00,
2013-01-13 01:08:00,51.6,51.0,30.14,NE,38,2.0,-999.0,98,-99.99,,,0.00,weatherlink.com 1.10,2013-01-13 06:08:00,
2013-01-13 01:23:00,51.6,51.0,30.15,NE,47,5.0,-999.0,99,-99.99,,,0.00,weatherlink.com 1.10,2013-01-13 06:23:00,
2013-01-13 01:38:00,52.0,52.0,30.15,NE,41,5.0,-999.0,99,-99.99,,,0.00,weatherlink.com 1.10,2013-01-13 06:38:00,
2013-01-13 01:53:00,52.3,52.0,30.15,NE,42,0.0,-999.0,99,-99.99,,,0.00,weatherlink.com 1.10,2013-01-13 06:53:00,
2013-01-13 02:08:00,52.4,52.0,30.15,NE,46,2.0,-999.0,99,-99.99,,,0.00,weatherlink.com 1.10,2013-01-13 07:08:00,
2013-01-13 02:23:00,52.5,52.0,30.16,NE,43,0.0,-999.0,99,-99.99,,,0.00,weatherlink.com 1.10,2013-01-13 07:23:00,
2013-01-13 02:38:00,52.5,52.0,30.16,NE,43,1.0,-999.0,99,-99.99,,,0.00,weatherlink.com 1.10,2013-01-13 07:38:00,
2013-01-13 02:53:00,52.7,53.0,30.15,NE,43,2.0,-999.0,99,-99.99,,,0.00,weatherlink.com 1.10,2013-01-13 07:53:00,
2013-01-13 03:08:00,52.9,53.0,30.15,NE,43,1.0,-999.0,99,-99.99,,,0.00,weatherlink.com 1.10,2013-01-13 08:08:00,
2013-01-13 03:23:00,53.0,53.0,30.14,NE,42,0.0,-999.0,99,-99.99,,,0.00,weatherlink.com 1.10,2013-01-13 08:23:00,
2013-01-13 03:38:00,53.2,53.0,30.14,NE,42,2.0,-999.0,99,-99.99,,,0.00,weatherlink.com 1.10,2013-01-13 08:38:00,
2013-01-13 03:53:00,53.4,53.0,30.13,NE,43,0.0,-999.0,99,-99.99,,,0.00,weatherlink.com 1.10,2013-01-13 08:53:00,
2013-01-13 04:08:00,53.7,54.0,30.13,NE,43,0.0,-999.0,99,-99.99,,,0.00,weatherlink.com 1.10,2013-01-13 09:08:00,
2013-01-13 04:23:00,53.4,53.0,30.13,NE,42,2.0,-999.0,99,-99.99,,,0.00,weatherlink.com 1.10,2013-01-13 09:23:00,
2013-01-13 04:38:00,53.3,53.0,30.13,NE,42,0.0,-999.0,99,-99.99,,,0.00,weatherlink.com 1.10,2013-01-13 09:38:00,
2013-01-13 04:53:00,53.4,53.0,30.13,NE,43,2.0,-999.0,99,-99.99,,,0.00,weatherlink.com 1.10,2013-01-13 09:53:00,
2013-01-13 05:08:00,53.4,53.0,30.13,NE,42,0.0,-999.0,99,-99.99,,,0.00,weatherlink.com 1.10,2013-01-13 10:08:00,
2013-01-13 05:23:00,53.1,53.0,30.13,NE,43,0.0,-999.0,99,-99.99,,,0.00,weatherlink.com 1.10,2013-01-13 10:23:00,
2013-01-13 05:38:00,53.3,53.0,30.14,NE,43,0.0,-999.0,99,-99.99,,,0.00,weatherlink.com 1.10,2013-01-13 10:38:00,
2013-01-13 05:53:00,53.7,54.0,30.14,NE,42,0.0,-999.0,99,-99.99,,,0.00,weatherlink.com 1.10,2013-01-13 10:53:00,
2013-01-13 06:08:00,54.0,54.0,30.15,NE,43,1.0,-999.0,99,-99.99,,,0.00,weatherlink.com 1.10,2013-01-13 11:08:00,
2013-01-13 06:23:00,54.0,54.0,30.15,NE,42,0.0,-999.0,99,-99.99,,,0.00,weatherlink.com 1.10,2013-01-13 11:23:00,
2013-01-13 06:38:00,53.9,54.0,30.15,NE,43,0.0,-999.0,99,-99.99,,,0.00,weatherlink.com 1.10,2013-01-13 11:38:00,
2013-01-13 06:53:00,53.7,54.0,30.15,NE,42,0.0,-999.0,99,-99.99,,,0.00,weatherlink.com 1.10,2013-01-13 11:53:00,
2013-01-13 07:08:00,53.5,53.0,30.16,NE,42,0.0,-999.0,99,-99.99,,,0.00,weatherlink.com 1.10,2013-01-13 12:08:00,
2013-01-13 07:23:00,53.3,53.0,30.15,NE,42,0.0,-999.0,99,-99.99,,,0.00,weatherlink.com 1.10,2013-01-13 12:23:00,
2013-01-13 07:38:00,53.4,53.0,30.16,NE,43,0.0,-999.0,99,-99.99,,,0.00,weatherlink.com 1.10,2013-01-13 12:38:00,
2013-01-13 07:53:00,54.3,54.0,30.16,NE,42,0.0,-999.0,99,-99.99,,,0.00,weatherlink.com 1.10,2013-01-13 12:53:00,
2013-01-13 08:09:00,55.7,56.0,30.16,NE,43,1.0,-999.0,99,-99.99,,,0.00,weatherlink.com 1.10,2013-01-13 13:09:00,
2013-01-13 08:24:00,56.7,57.0,30.16,NE,42,0.0,-999.0,99,-99.99,,,0.00,weatherlink.com 1.10,2013-01-13 13:24:00,
2013-01-13 08:39:00,57.6,57.0,30.16,NE,42,0.0,-999.0,99,-99.99,,,0.00,weatherlink.com 1.10,2013-01-13 13:39:00,
2013-01-13 08:54:00,58.0,58.0,30.16,NE,43,0.0,-999.0,99,-99.99,,,0.00,weatherlink.com 1.10,2013-01-13 13:54:00,
2013-01-13 09:09:00,58.6,58.0,30.17,NE,42,1.0,-999.0,99,-99.99,,,0.00,weatherlink.com 1.10,2013-01-13 14:09:00,
2013-01-13 09:24:00,59.4,59.0,30.18,NE,42,0.0,-999.0,99,-99.99,,,0.00,weatherlink.com 1.10,2013-01-13 14:24:00,
2013-01-13 09:39:00,61.2,61.0,30.18,NE,43,0.0,-999.0,99,-99.99,,,0.00,weatherlink.com 1.10,2013-01-13 14:39:00,
2013-01-13 09:54:00,61.2,61.0,30.18,NE,42,0.0,-999.0,99,-99.99,,,0.00,weatherlink.com 1.10,2013-01-13 14:54:00,
2013-01-13 10:09:00,60.7,60.0,30.18,NE,42,0.0,-999.0,98,-99.99,,,0.00,weatherlink.com 1.10,2013-01-13 15:09:00,
2013-01-13 10:24:00,60.9,60.0,30.18,NE,43,1.0,-999.0,98,-99.99,,,0.00,weatherlink.com 1.10,2013-01-13 15:24:00,
2013-01-13 10:39:00,61.6,61.0,30.18,NE,42,0.0,-999.0,98,-99.99,,,0.00,weatherlink.com 1.10,2013-01-13 15:39:00,
2013-01-13 10:54:00,62.4,62.0,30.17,NE,42,0.0,-999.0,98,-99.99,,,0.00,weatherlink.com 1.10,2013-01-13 15:54:00,
2013-01-13 11:09:00,64.7,64.0,30.17,NE,42,0.0,-999.0,96,-99.99,,,0.00,weatherlink.com 1.10,2013-01-13 16:09:00,
2013-01-13 11:24:00,67.2,65.0,30.16,NE,43,1.0,-999.0,92,-99.99,,,0.00,weatherlink.com 1.10,2013-01-13 16:24:00,
2013-01-13 11:39:00,69.2,66.0,30.15,SSE,156,2.0,-999.0,89,-99.99,,,0.00,weatherlink.com 1.10,2013-01-13 16:39:00,
2013-01-13 11:54:00,70.9,67.0,30.15,SSE,163,6.0,-999.0,86,-99.99,,,0.00,weatherlink.com 1.10,2013-01-13 16:54:00,
2013-01-13 12:09:00,70.3,66.0,30.14,SSW,198,4.0,-999.0,87,-99.99,,,0.00,weatherlink.com 1.10,2013-01-13 17:09:00,
2013-01-13 12:24:00,69.5,66.0,30.14,SSW,207,5.0,-999.0,88,-99.99,,,0.00,weatherlink.com 1.10,2013-01-13 17:24:00,
2013-01-13 12:39:00,69.6,66.0,30.13,SSW,201,2.0,-999.0,89,-99.99,,,0.00,weatherlink.com 1.10,2013-01-13 17:39:00,
2013-01-13 12:54:00,69.7,66.0,30.13,SW,215,7.0,-999.0,89,-99.99,,,0.00,weatherlink.com 1.10,2013-01-13 17:54:00,
2013-01-13 13:09:00,70.2,66.0,30.12,SW,215,4.0,-999.0,87,-99.99,,,0.00,weatherlink.com 1.10,2013-01-13 18:09:00,
2013-01-13 13:24:00,71.2,66.0,30.12,SW,214,1.0,-999.0,83,-99.99,,,0.00,weatherlink.com 1.10,2013-01-13 18:24:00,
2013-01-13 13:39:00,71.3,66.0,30.12,SSW,199,8.0,-999.0,82,-99.99,,,0.00,weatherlink.com 1.10,2013-01-13 18:39:00,
2013-01-13 13:54:00,71.0,65.0,30.12,SSW,209,1.0,-999.0,82,-99.99,,,0.00,weatherlink.com 1.10,2013-01-13 18:54:00,
2013-01-13 14:09:00,71.2,65.0,30.12,SSW,205,1.0,-999.0,80,-99.99,,,0.00,weatherlink.com 1.10,2013-01-13 19:09:00,
2013-01-13 14:24:00,71.7,65.0,30.12,SSW,211,3.0,-999.0,78,-99.99,,,0.00,weatherlink.com 1.10,2013-01-13 19:24:00,
2013-01-13 14:39:00,71.9,64.0,30.13,SW,215,1.0,-999.0,77,-99.99,,,0.00,weatherlink.com 1.10,2013-01-13 19:39:00,
2013-01-13 14:54:00,71.6,64.0,30.13,SW,216,1.0,-999.0,77,-99.99,,,0.00,weatherlink.com 1.10,2013-01-13 19:54:00,
2013-01-13 15:09:00,70.6,64.0,30.13,SSW,209,5.0,-999.0,79,-99.99,,,0.00,weatherlink.com 1.10,2013-01-13 20:09:00,
2013-01-13 15:24:00,69.2,63.0,30.14,SSW,208,4.0,-999.0,80,-99.99,,,0.00,weatherlink.com 1.10,2013-01-13 20:24:00,
2013-01-13 15:39:00,68.1,63.0,30.14,SSW,213,5.0,-999.0,83,-99.99,,,0.00,weatherlink.com 1.10,2013-01-13 20:39:00,
2013-01-13 15:54:00,67.2,62.0,30.14,SW,214,4.0,-999.0,84,-99.99,,,0.00,weatherlink.com 1.10,2013-01-13 20:54:00,
2013-01-13 16:09:00,67.0,62.0,30.14,SW,214,3.0,-999.0,85,-99.99,,,0.00,weatherlink.com 1.10,2013-01-13 21:09:00,
2013-01-13 16:24:00,66.2,62.0,30.14,SSW,212,0.0,-999.0,86,-99.99,,,0.00,weatherlink.com 1.10,2013-01-13 21:24:00,
2013-01-13 16:39:00,65.4,62.0,30.14,SSW,212,4.0,-999.0,88,-99.99,,,0.00,weatherlink.com 1.10,2013-01-13 21:39:00,
2013-01-13 16:54:00,64.7,62.0,30.14,SSW,212,1.0,-999.0,89,-99.99,,,0.00,weatherlink.com 1.10,2013-01-13 21:54:00,
2013-01-13 17:10:00,64.1,61.0,30.14,SSW,212,2.0,-999.0,90,-99.99,,,0.00,weatherlink.com 1.10,2013-01-13 22:10:00,
2013-01-13 17:25:00,63.8,61.0,30.14,SSW,212,2.0,-999.0,90,-99.99,,,0.00,weatherlink.com 1.10,2013-01-13 22:25:00,
2013-01-13 17:40:00,63.6,61.0,30.14,SSW,212,0.0,-999.0,90,-99.99,,,0.00,weatherlink.com 1.10,2013-01-13 22:40:00,
2013-01-13 17:55:00,63.6,61.0,30.15,SSW,213,1.0,-999.0,91,-99.99,,,0.00,weatherlink.com 1.10,2013-01-13 22:55:00,
2013-01-13 18:10:00,63.5,61.0,30.15,SSW,212,2.0,-999.0,92,-99.99,,,0.00,weatherlink.com 1.10,2013-01-13 23:10:00,
2013-01-13 18:25:00,63.4,61.0,30.15,SSW,212,4.0,-999.0,93,-99.99,,,0.00,weatherlink.com 1.10,2013-01-13 23:25:00,
2013-01-13 18:40:00,63.3,61.0,30.15,SSW,213,3.0,-999.0,93,-99.99,,,0.00,weatherlink.com 1.10,2013-01-13 23:40:00,
2013-01-13 18:55:00,63.6,62.0,30.15,SSW,212,1.0,-999.0,93,-99.99,,,0.00,weatherlink.com 1.10,2013-01-13 23:55:00,
2013-01-13 19:10:00,64.3,62.0,30.15,SSW,212,4.0,-999.0,92,-99.99,,,0.00,weatherlink.com 1.10,2013-01-14 00:10:00,
2013-01-13 19:25:00,64.8,62.0,30.14,SSW,212,7.0,-999.0,91,-99.99,,,0.00,weatherlink.com 1.10,2013-01-14 00:25:00,
2013-01-13 19:40:00,65.1,62.0,30.14,SSW,205,1.0,-999.0,90,-99.99,,,0.00,weatherlink.com 1.10,2013-01-14 00:40:00,
2013-01-13 19:55:00,64.8,62.0,30.13,SSW,207,6.0,-999.0,90,-99.99,,,0.00,weatherlink.com 1.10,2013-01-14 00:55:00,
2013-01-13 20:10:00,64.4,62.0,30.13,SSW,207,3.0,-999.0,91,-99.99,,,0.00,weatherlink.com 1.10,2013-01-14 01:10:00,
2013-01-13 20:25:00,64.4,62.0,30.14,SSW,211,3.0,-999.0,92,-99.99,,,0.00,weatherlink.com 1.10,2013-01-14 01:25:00,
2013-01-13 20:40:00,64.8,63.0,30.13,SSW,211,5.0,-999.0,93,-99.99,,,0.00,weatherlink.com 1.10,2013-01-14 01:40:00,
2013-01-13 20:55:00,64.9,63.0,30.13,SSW,211,4.0,-999.0,93,-99.99,,,0.00,weatherlink.com 1.10,2013-01-14 01:55:00,
2013-01-13 21:10:00,65.1,63.0,30.13,SSW,213,6.0,-999.0,93,-99.99,,,0.00,weatherlink.com 1.10,2013-01-14 02:10:00,
2013-01-13 21:25:00,65.1,63.0,30.12,SSW,212,3.0,-999.0,93,-99.99,,,0.00,weatherlink.com 1.10,2013-01-14 02:25:00,
2013-01-13 21:40:00,65.1,63.0,30.13,SSW,213,3.0,-999.0,93,-99.99,,,0.00,weatherlink.com 1.10,2013-01-14 02:40:00,
2013-01-13 21:55:00,65.2,63.0,30.13,SW,216,3.0,-999.0,93,-99.99,,,0.00,weatherlink.com 1.10,2013-01-14 02:55:00,
2013-01-13 22:10:00,65.3,63.0,30.13,SW,215,5.0,-999.0,93,-99.99,,,0.00,weatherlink.com 1.10,2013-01-14 03:10:00,
2013-01-13 22:25:00,65.6,64.0,30.14,SW,216,5.0,-999.0,93,-99.99,,,0.00,weatherlink.com 1.10,2013-01-14 03:25:00,
2013-01-13 22:40:00,65.7,64.0,30.14,SW,216,3.0,-999.0,93,-99.99,,,0.00,weatherlink.com 1.10,2013-01-14 03:40:00,
2013-01-13 22:55:00,65.9,64.0,30.15,SW,214,5.0,-999.0,93,-99.99,,,0.00,weatherlink.com 1.10,2013-01-14 03:55:00,
2013-01-13 23:10:00,66.1,64.0,30.16,SW,229,4.0,-999.0,93,-99.99,,,0.00,weatherlink.com 1.10,2013-01-14 04:10:00,
2013-01-13 23:25:00,66.5,65.0,30.16,SW,223,5.0,-999.0,93,-99.99,,,0.00,weatherlink.com 1.10,2013-01-14 04:25:00,
2013-01-13 23:40:00,66.3,64.0,30.16,SW,223,3.0,-999.0,93,-99.99,,,0.00,weatherlink.com 1.10,2013-01-14 04:40:00,
2013-01-13 23:55:00,66.1,64.0,30.16,SW,223,5.0,-999.0,94,-99.99,,,0.00,weatherlink.com 1.10,2013-01-14 04:55:00,